News

Statistiques des heures de vols au 02/01/2015

Les statistiques des heures de vol réalisées sont à votre disposition dans la rubrique "Membres"...

Meilleurs voeux 2015 de l'ACT

Meilleurs voeux 2015 de l'ACT

Meilleurs voeux aéronautiques du Conseil d'Administration à tous les adhérents de l'Aeroclub de...

Accueil

 Bienvenue sur le site de l'Aéroclub de Touraine !

Patrouille présentation 3 avions - 9 Octobre 2013.

 

  Ce site est en constante évolution.

Il vous permet de découvrir nos activités, et de vous donner envie de nous rejoindre et d'apprendre à piloter.

L'Aéroclub de Touraine est situé au Sud de l'agglomération Tourangelle, sur la plateforme de Tours-Sorigny (carte VAC)

C'est l'un des plus ancien Aéroclub de France, fondé en 1908. L'Aéroclub de Touraine est une association loi 1901 dynamique affilié à la Fédération Française Aéronautique.

Tous les efforts sont faits pour maintenir une flotte d'avions bien équipés et récents, régulièrement renouvelés.

L'Aéroclub de Touraine est un club de passionnés de l'aéronautique qui vous feront découvrir leurs activités: balades, voyages, rallyes aériens, vols en patrouille

Mais l'Aéroclub de Touraine, c'est aussi une école de pilotage , forte d'un instructeur professionnel salarié et de 4 instructeurs bénévoles permettant à nos élèves de progresser en toute sécurité dans l'apprentissage du vol moteur.

Alors n'hésitez pas à nous rendre visite, l'accueil est aussi un des points forts de l'Aéroclub de Touraine

 

Sites amis

                        

 

Météo

[source: ADDS]
METAR
TAF LFOT 290500Z 2906/3006 27015KT 9999 BKN040 BECMG 2908/2910 4000 -RA BKN003 BKN015 BECMG 2918/2920 9999 NSW SCT020 TEMPO 2920/3006 5000 SHRA BKN020TCU TAF
TAF LFOT 290500Z 2906/3006 27015KT 9999 BKN040 BECMG 2908/2910 4000 -RA BKN003 BKN015 BECMG 2918/2920 9999 NSW SCT020 TEMPO 2920/3006 5000 SHRA BKN020TCU =
SR / SS: 07:26 / 16:54 UTC (LFEN 2015-01-29)

Login Form



Facebook